Location: Newark
(39.9333°N, 8.7667°E)
Time: 05:16:46
(UTC+00:00)

Hubble Space Telescope - Visible Passes

Search period start: 10 December 2019 00:00
Search period end: 20 December 2019 00:00
Orbit: 536 x 540 km, 28.5° (Epoch: 08 December)

Date Brightness Start Highest point End Pass type
(mag) Time Alt. Az. Time Alt. Az. Time Alt. Az.
14 Dec 3.6 05:17:47 10° S 05:18:52 11° SSE 05:19:57 10° SSE visible
15 Dec 3.5 05:06:23 10° SSW 05:08:08 12° SSE 05:09:52 10° SE visible
16 Dec 3.4 04:55:16 10° SSW 04:57:24 14° S 04:59:31 10° SE visible
17 Dec 3.2 04:44:46 11° SSW 04:46:40 15° S 04:49:02 10° SE visible
18 Dec 3.0 04:34:57 15° SSW 04:35:57 16° S 04:38:29 10° SE visible
19 Dec 3.0 04:25:04 16° S 04:25:14 16° S 04:27:51 10° SE visible
19 Dec 3.3 06:03:32 10° SW 06:05:42 14° S 06:07:53 10° SSE visible
